Вернуться в каталог

BREEZE-KM DEB

АктивенPO
NORAD 41721·DEBRIS·🇷🇺 Russia

Запущен Mar 31, 2015 с Plesetsk Cosmodrome

Loading…

Ближайшие Пролёты (ближайшие 24 часа)

TLE

СвежийSource: Space-Track

Эпоха: Sep 14, 2026, 01:36 UTC

1 41721U 15020J   26257.06689804 -.00000004  00000-0 -52752-4 0  9997
2 41721  82.4958 176.5720 0243776 291.8364  65.6966 12.74753659523516

Отслеживайте BREEZE-KM DEB в реальном времени с AllMySat

Download on the App Store